N505ZG KLAX-MMTJ

Flight info

Callsign N505ZG
Flight time N/A
Altitude 9000
Route PNDAH2 OTAYY DCT TIJ
Aircraft C208/L-SDFGR/C

Departure

Time 2026-04-22 21:38
Airport Los Angeles International Airport (KLAX)

Arrival

Time N/A
Airport General Abelardo L. Rodriguez International Airport (MMTJ)
Time Latitude Longitude Altitude Speed Heading
2026-04-22 21:20 33.93334 -118.39716 106 ft 0 kts 104°
2026-04-22 21:32 33.93332 -118.39703 106 ft 1 kts 101°
2026-04-22 21:32 33.93345 -118.39673 106 ft 8 kts 18°
2026-04-22 21:32 33.93354 -118.39672 106 ft 0 kts 357°
2026-04-22 21:33 33.93383 -118.39692 106 ft 11 kts 303°
2026-04-22 21:33 33.93402 -118.39786 107 ft 14 kts 275°
2026-04-22 21:34 33.93460 -118.39788 108 ft 16 kts 83°
2026-04-22 21:34 33.93478 -118.39604 108 ft 25 kts 83°
2026-04-22 21:34 33.93501 -118.39381 107 ft 29 kts 83°
2026-04-22 21:34 33.93528 -118.39113 107 ft 36 kts 82°
2026-04-22 21:35 33.93555 -118.38843 106 ft 29 kts 83°
2026-04-22 21:35 33.93582 -118.38586 106 ft 36 kts 83°
2026-04-22 21:35 33.93611 -118.38313 106 ft 12 kts 68°
2026-04-22 21:35 33.93639 -118.38283 107 ft 0 kts 22°
2026-04-22 21:36 33.93640 -118.38282 107 ft 1 kts 21°
2026-04-22 21:36 33.93670 -118.38280 107 ft 10 kts 351°
2026-04-22 21:37 33.93729 -118.38332 109 ft 16 kts 275°
2026-04-22 21:37 33.93712 -118.38528 107 ft 40 kts 262°
2026-04-22 21:37 33.93660 -118.39044 121 ft 79 kts 261°
2026-04-22 21:37 33.93588 -118.39724 275 ft 82 kts 261°
2026-04-22 21:38 33.93495 -118.40412 421 ft 84 kts 257°
2026-04-22 21:38 33.93365 -118.41107 624 ft 84 kts 254°
2026-04-22 21:38 33.93198 -118.41736 890 ft 75 kts 251°
2026-04-22 21:38 33.93100 -118.42332 1157 ft 71 kts 257°
2026-04-22 21:39 33.93053 -118.42937 1408 ft 74 kts 257°
2026-04-22 21:39 33.92978 -118.43604 1689 ft 89 kts 262°
2026-04-22 21:39 33.92920 -118.44320 1913 ft 81 kts 266°
2026-04-22 21:39 33.92888 -118.44959 2154 ft 70 kts 261°
2026-04-22 21:40 33.92547 -118.45377 2288 ft 82 kts 209°
2026-04-22 21:40 33.91950 -118.45542 2430 ft 95 kts 197°
2026-04-22 21:40 33.91302 -118.45730 2656 ft 96 kts 198°
2026-04-22 21:40 33.90657 -118.45912 2890 ft 94 kts 198°
2026-04-22 21:41 33.90013 -118.46096 3114 ft 95 kts 198°
2026-04-22 21:41 33.89362 -118.46287 3345 ft 97 kts 198°
2026-04-22 21:41 33.88714 -118.46476 3579 ft 98 kts 197°
2026-04-22 21:41 33.88026 -118.46682 3793 ft 105 kts 197°
2026-04-22 21:42 33.87282 -118.46900 3996 ft 115 kts 198°
2026-04-22 21:42 33.86485 -118.47133 4211 ft 123 kts 198°
2026-04-22 21:42 33.85641 -118.47386 4426 ft 128 kts 198°
2026-04-22 21:42 33.84762 -118.47648 4647 ft 132 kts 198°
2026-04-22 21:43 33.83852 -118.47910 4871 ft 136 kts 199°
2026-04-22 21:43 33.82931 -118.48190 4995 ft 143 kts 198°
2026-04-22 21:43 33.81929 -118.48486 5010 ft 154 kts 198°
2026-04-22 21:43 33.80869 -118.48799 5008 ft 160 kts 198°
2026-04-22 21:44 33.79752 -118.49125 5008 ft 165 kts 198°
2026-04-22 21:44 33.78630 -118.49450 5009 ft 167 kts 198°
2026-04-22 21:44 33.77499 -118.49785 5007 ft 168 kts 198°
2026-04-22 21:44 33.76378 -118.50110 5010 ft 168 kts 198°
2026-04-22 21:45 33.75231 -118.50444 5008 ft 169 kts 197°
2026-04-22 21:45 33.74085 -118.50784 5004 ft 170 kts 197°
2026-04-22 21:45 33.72940 -118.51125 5002 ft 170 kts 198°
2026-04-22 21:45 33.71792 -118.51458 5004 ft 169 kts 198°
2026-04-22 21:46 33.70615 -118.51539 5002 ft 174 kts 172°
2026-04-22 21:46 33.69511 -118.50935 5002 ft 176 kts 143°
2026-04-22 21:46 33.68745 -118.49796 5009 ft 176 kts 116°
2026-04-22 21:46 33.68205 -118.48492 5003 ft 177 kts 116°
2026-04-22 21:47 33.67635 -118.47179 5010 ft 177 kts 116°
2026-04-22 21:47 33.67070 -118.45869 5007 ft 177 kts 116°
2026-04-22 21:47 33.66505 -118.44550 5005 ft 177 kts 116°
2026-04-22 21:47 33.65931 -118.43214 5005 ft 177 kts 116°
2026-04-22 21:48 33.65391 -118.41963 5228 ft 165 kts 116°
2026-04-22 21:48 33.64908 -118.40833 5446 ft 157 kts 116°
2026-04-22 21:48 33.64415 -118.39682 5683 ft 152 kts 116°
2026-04-22 21:48 33.63934 -118.38567 5922 ft 149 kts 116°
2026-04-22 21:49 33.63461 -118.37471 6162 ft 146 kts 115°
2026-04-22 21:49 33.62997 -118.36394 6406 ft 144 kts 115°
2026-04-22 21:49 33.62541 -118.35332 6641 ft 142 kts 115°
2026-04-22 21:49 33.62088 -118.34278 6840 ft 143 kts 115°
2026-04-22 21:50 33.61626 -118.33208 7028 ft 145 kts 116°
2026-04-22 21:50 33.61156 -118.32118 7222 ft 145 kts 116°
2026-04-22 21:50 33.60689 -118.31039 7445 ft 145 kts 116°
2026-04-22 21:50 33.60229 -118.29971 7659 ft 144 kts 116°
2026-04-22 21:51 33.59770 -118.28906 7874 ft 143 kts 117°
2026-04-22 21:51 33.59310 -118.27843 8092 ft 143 kts 117°
2026-04-22 21:51 33.58859 -118.26797 8318 ft 143 kts 117°